Regional Weather Roundup
Issued by NWS

Home | Current Version | Previous Version | Text Only | Print | Product List | Glossary On
Versions: 1 2 3 4 5 6 7 8 9 10 11 12 13 14 15 16 17 18 19 20 21 22 23 24 25 26 27 28 29 30 31 32 33 34 35 36 37 38 39 40 41 42 43 44 45 46 47 48 49 50
000
ASUS43 KDTX 241310
RWRMI
MICHIGAN HOURLY REGIONAL WEATHER ROUNDUP
NATIONAL WEATHER SERVICE DETROIT/PONTIAC MI
900 AM EDT THU APR 24 2014

NOTE: "FAIR" INDICATES FEW OR NO CLOUDS BELOW 12,000 FEET WITH NO
SIGNIFICANT WEATHER AND/OR OBSTRUCTION TO VISIBILITY.

MIZ047>049-052>055-059>063-066>070-074>076-081>083-241400-
SOUTHEAST LOWER MICHIGAN

CITY           SKY/WX    TMP DP  RH WIND       PRES   REMARKS
ADRIAN         CLOUDY    45  27  49 SE9       30.17R
ALMA           CLOUDY    41  24  50 E3        30.15S
ANN ARBOR      CLOUDY    42  18  37 E8        30.17R
BAD AXE        PTSUNNY   38  26  62 CALM      30.19R
DETROIT CITY   CLOUDY    43  23  45 CALM      30.20R
DETROIT        CLOUDY    43  16  33 E7        30.19S
FLINT          CLOUDY    43  18  36 SE9       30.17F
GROSSE ILE     CLOUDY    43   9  24 E5        30.18S
HILLSDALE      PTSUNNY   46  26  45 SE12G17   30.13S
HOWELL         CLOUDY    42  16  34 SE9       30.16R

CITY           SKY/WX    TMP DP  RH WIND       PRES   REMARKS
JACKSON        CLOUDY    44  28  53 SE9       30.15R
LAMBERTVILLE   CLOUDY    45  19  36 E8        30.17S
LANSING        CLOUDY    44  24  45 SE12      30.15S
LAPEER         NOT AVBL
MASON          CLOUDY    43  26  51 SE6       30.15R
MONROE         CLOUDY    45  21  39 E9        30.16F
PONTIAC        CLOUDY    41  14  33 SE9       30.16S
PORT HOPE        N/A     40  27  59 CALM      30.17S
PORT HURON     MOSUNNY   39  23  52 CALM      30.19S
TRI CITIES     CLOUDY    42  20  41 SE7       30.18S
YPSILANTI      CLOUDY    45  17  32 E8        30.18S
$$
MIZ043>046-050>051-056>058-064>065-071>073-077>080-241400-
SOUTHWEST LOWER MICHIGAN

CITY           SKY/WX    TMP DP  RH WIND       PRES   REMARKS
BATTLE CREEK   CLOUDY    47  29  49 SE8       30.12S
BENTON HARBOR  PTSUNNY   50  36  58 SE10      30.06F
BIG RAPIDS     CLOUDY    43  22  44 SE10      30.12S
COLDWATER      CLOUDY    46  29  52 SE9       30.13S
HOLLAND        CLOUDY    49  32  52 SE7       30.10S
GRAND RAPIDS   CLOUDY    48  33  56 E10       30.11F
KALAMAZOO      CLOUDY    48  32  53 SE8       30.11F
MARSHALL       CLOUDY    45  30  55 SE8       30.13R
MUSKEGON       LGT RAIN  45  32  60 SE7       30.10F
$$
MIZ016>042-241400-
NORTHERN LOWER MICHIGAN

CITY           SKY/WX    TMP DP  RH WIND       PRES   REMARKS
ALPENA         MOSUNNY   38  26  62 CALM      30.17S
BEAVER ISLAND  PTSUNNY   38  24  56 E8        30.14S
BELLAIRE       CLOUDY    36  31  81 CALM      30.14S
CADILLAC       CLOUDY    40  17  39 SE13      30.10F
CHARLEVOIX     CLOUDY    36  25  64 E5        30.17S
FRANKFORT      CLOUDY    43  17  35 E6        30.10S
GAYLORD        CLOUDY    36  22  56 SE5       30.14R
GRAYLING       CLOUDY    35  22  58 SE3       30.15R
HARBOR SPRINGS CLOUDY    37  25  61 E5        30.15R
HOUGHTON LAKE  CLOUDY    39  21  48 SE5       30.15R
MANISTEE       CLOUDY    45  16  31 E9        30.10F
OSCODA         PTSUNNY   40  24  53 CALM      30.18R
PELLSTON       CLOUDY    36  24  62 CALM      30.16S
TRAVERSE CITY  CLOUDY    39  26  59 CALM      30.12S
$$
MIZ007>008-015-241400-
EASTERN UPPER MICHIGAN

CITY           SKY/WX    TMP DP  RH WIND       PRES   REMARKS
KINROSS        CLOUDY    37  27  65 E5        30.15S
MACKINAC ISLAN CLOUDY    37  26  64 E8        30.15S
NEWBERRY       CLOUDY    35  25  67 E6        30.14S
S. S. MARIE    CLOUDY    35  26  69 E3        30.15F
$$
MIZ004>006-011>014-085-241400-
CENTRAL UPPER MICHIGAN

CITY           SKY/WX    TMP DP  RH WIND       PRES   REMARKS
MANISTIQUE     CLOUDY    36  24  62 E8        30.12F
ESCANABA       CLOUDY    37  25  60 E8        30.10S
MENOMINEE      CLOUDY    36  25  64 E9        30.07S
SAWYER-GWINN   CLOUDY    36  19  51 SE6       30.09S
$$
MIZ001>003-009>011-084-241400-
WESTERN UPPER MICHIGAN

CITY           SKY/WX    TMP DP  RH WIND       PRES   REMARKS
IRON MOUNTAIN  CLOUDY    38  16  40 SE6       30.05S
HOUGHTON       CLOUDY    36  23  59 E5        30.07R
COPPER HARBOR    N/A     39  24  55 VRB3      30.09R
IRONWOOD       CLOUDY    37  30  75 E8G17     29.95S
$$

ABBREVIATIONS USED IN REMARKS
   TC - TEMPERATURE IN CELSIUS
  WCI - WIND CHILL INDEX
   HX - HEAT INDEX
  VSB - VISIBILITY




USA.gov is the U.S. government's official web portal to all federal, state and local government web resources and services.